QPF
0.08 0.08 0.08 0.08 0.06 0.06 0.07 0.06 0.04 0.04 0.02 0.01 0.01 0.01 0.01 0.02 0.02 0.03 0.03 0.02 0.01 0.01 0.02 0.02 0.01 0.01 0.02 0.03 0.04 0.06 0.05 0.03 0.02 0.02 0.01 0.01 0.01 0.02 0.01 0.02 0.02 0.01 0.01
0.07 0.07 0.07 0.08 0.07 0.06 0.06 0.05 0.04 0.04 0.02 0.02 0.02 0.01 0.01 0.01 0.02 0.03 0.05 0.03 0.01 0.01 0.01 0.02 0.02 0.01 0.01 0.01 0.02 0.03 0.04 0.03 0.02 0.01 0.02 0.02 0.01 0.01 0.02 0.02 0.02 0.01 0.01
0.06 0.06 0.06 0.05 0.05 0.05 0.04 0.03 0.04 0.03 0.03 0.02 0.02 0.02 0.01 0.01 0.02 0.03 0.04 0.06 0.03 0.01 0.01 0.02 0.02 0.02 0.01 0.01 0.01 0.02 0.02 0.02 0.02 0.02 0.01 0.01 0.01 0.01 0.01 0.02 0.02 0.01 0.01
0.03 0.05 0.04 0.04 0.04 0.04 0.03 0.04 0.03 0.04 0.03 0.03 0.04 0.03 0.03 0.02 0.02 0.03 0.03 0.03 0.04 0.03 0.02 0.01 0.02 0.02 0.02 0.02 0.01 0.02 0.02 0.02 0.02 0.01 0.01 0.01 0.01 0.01 0.01 0.01 0.02 0.01 0.01
0.02 0.03 0.05 0.05 0.03 0.03 0.02 0.03 0.04 0.05 0.06 0.04 0.03 0.03 0.02 0.02 0.03 0.03 0.04 0.03 0.02 0.04 0.04 0.02 0.01 0.01 0.01 0.02 0.01 0.01 0.02 0.02 0.02 0.02 0.01 0.01 0.01 0.01 0.02 0.02 0.01 0.01 0.01
0.02 0.02 0.03 0.03 0.03 0.03 0.04 0.05 0.05 0.05 0.05 0.04 0.03 0.03 0.02 0.02 0.02 0.02 0.02 0.02 0.02 0.03 0.04 0.05 0.04 0.02 0.01 0.02 0.02 0.02 0.02 0.02 0.02 0.02 0.02 0.02 0.02 0.02 0.02 0.01 0.01 0.01 0.01
0.03 0.02 0.03 0.03 0.03 0.05 0.06 0.05 0.04 0.04 0.04 0.03 0.03 0.04 0.03 0.02 0.01 0.01 0.01 0.02 0.02 0.02 0.03 0.05 0.05 0.06 0.03 0.02 0.01 0.01 0.02 0.03 0.03 0.02 0.02 0.02 0.03 0.02 0.02 0.01 0.01 0.01 0.01
0.03 0.02 0.02 0.02 0.04 0.06 0.05 0.05 0.05 0.04 0.03 0.02 0.03 0.05 0.07 0.07 0.04 0.01 0.01 0.01 0.01 0.02 0.03 0.03 0.04 0.05 0.04 0.05 0.02 0.01 0.01 0.02 0.02 0.03 0.02 0.02 0.01 0.01 0.01 0.01 0.01 0.01 0.01
0.02 0.03 0.03 0.03 0.05 0.04 0.05 0.04 0.03 0.03 0.03 0.03 0.02 0.03 0.06 0.07 0.06 0.03 0.02 0.02 0.02 0.02 0.02 0.03 0.02 0.03 0.03 0.06 0.04 0.01 0.00 0.01 0.02 0.02 0.02 0.02 0.01 0.01 0.01 0.01 0.01 0.01 0.01
0.04 0.04 0.03 0.04 0.04 0.04 0.05 0.03 0.03 0.03 0.04 0.03 0.02 0.01 0.02 0.03 0.03 0.04 0.03 0.02 0.02 0.03 0.02 0.02 0.02 0.02 0.03 0.03 0.03 0.01 0.00 0.00 0.01 0.01 0.02 0.02 0.02 0.01 0.01 0.01 0.01 0.01 0.01
0.03 0.02 0.03 0.04 0.04 0.04 0.04 0.03 0.04 0.02 0.02 0.02 0.01 0.01 0.01 0.01 0.01 0.03 0.04 0.04 0.03 0.02 0.01 0.01 0.02 0.02 0.02 0.02 0.02 0.01 0.00 0.00 0.00 0.00 0.01 0.01 0.01 0.01 0.01 0.01 0.01 0.01 0.02
0.03 0.02 0.03 0.03 0.03 0.04 0.03 0.03 0.03 0.02 0.01 0.01 0.01 0.01 0.01 0.01 0.01 0.02 0.03 0.03 0.04 0.03 0.01 0.00 0.00 0.01 0.01 0.01 0.01 0.00 0.00 0.00 0.00 0.00 0.00 0.00 0.00 0.01 0.01 0.01 0.01 0.01 0.02
0.03 0.03 0.03 0.04 0.03 0.03 0.03 0.02 0.02 0.02 0.01 0.01 0.01 0.01 0.01 0.01 0.01 0.01 0.01 0.02 0.02 0.02 0.01 0.00 0.00 0.00 0.00 0.01 0.01 0.00 0.00 0.00 0.00 0.00 0.00 0.00 0.00 0.01 0.01 0.01 0.01 0.01 0.02
0.03 0.04 0.05 0.04 0.03 0.03 0.02 0.02 0.02 0.01 0.02 0.01 0.01 0.01 0.00 0.00 0.00 0.01 0.01 0.01 0.01 0.01 0.01 0.00 0.00 0.00 0.00 0.00 0.00 0.00 0.00 0.00 0.00 0.00 0.00 0.00 0.00 0.00 0.00 0.00 0.01 0.01 0.01
0.03 0.05 0.04 0.04 0.04 0.04 0.03 0.03 0.02 0.02 0.03 0.02 0.01 0.01 0.01 0.00 0.00 0.00 0.00 0.00 0.01 0.01 0.01 0.01 0.00 0.00 0.00 0.00 0.00 0.00 0.00 0.00 0.00 0.00 0.00 0.00 0.00 0.00 0.00 0.00 0.00 0.00 0.00
0.05 0.06 0.04 0.04 0.04 0.04 0.04 0.04 0.04 0.03 0.03 0.02 0.02 0.02 0.02 0.01 0.01 0.00 0.00 0.00 0.00 0.00 0.00 0.00 0.00 0.00 0.00 0.00 0.00 0.00 0.00 0.00 0.00 0.00 0.00 0.00 0.00 0.00 0.00 0.00 0.00 0.00 0.00
0.08 0.07 0.05 0.05 0.04 0.04 0.04 0.05 0.03 0.03 0.02 0.02 0.02 0.02 0.02 0.02 0.02 0.01 0.01 0.00 0.00 0.00 0.01 0.00 0.00 0.00 0.00 0.00 0.00 0.00 0.00 0.00 0.00 0.00 0.00 0.00 0.00 0.00 0.00 0.00 0.00 0.00 0.00
0.06 0.07 0.07 0.06 0.04 0.03 0.04 0.04 0.03 0.03 0.04 0.03 0.04 0.05 0.04 0.04 0.04 0.02 0.02 0.01 0.00 0.01 0.01 0.01 0.00 0.00 0.00 0.00 0.00 0.00 0.00 0.00 0.00 0.00 0.00 0.00 0.00 0.00 0.00 0.00 0.00 0.00 0.00
0.09 0.07 0.07 0.06 0.04 0.04 0.03 0.03 0.03 0.05 0.05 0.05 0.06 0.06 0.06 0.06 0.06 0.05 0.04 0.02 0.02 0.01 0.01 0.01 0.01 0.01 0.01 0.01 0.01 0.00 0.00 0.00 0.00 0.00 0.00 0.00 0.00 0.00 0.00 0.00 0.00 0.00 0.00
0.09 0.08 0.07 0.07 0.06 0.05 0.04 0.04 0.05 0.05 0.05 0.05 0.06 0.06 0.07 0.07 0.06 0.06 0.05 0.05 0.04 0.04 0.04 0.03 0.02 0.01 0.01 0.01 0.02 0.02 0.01 0.01 0.00 0.00 0.00 0.00 0.00 0.00 0.00 0.00 0.00 0.00 0.00
0.08 0.11 0.10 0.10 0.10 0.07 0.05 0.05 0.05 0.05 0.07 0.06 0.06 0.06 0.07 0.08 0.07 0.06 0.04 0.05 0.05 0.05 0.04 0.04 0.04 0.03 0.03 0.04 0.05 0.04 0.03 0.03 0.02 0.01 0.01 0.01 0.01 0.01 0.01 0.01 0.01 0.01 0.00
0.10 0.11 0.08 0.09 0.10 0.07 0.07 0.06 0.06 0.06 0.07 0.07 0.07 0.07 0.07 0.06 0.04 0.04 0.03 0.03 0.03 0.04 0.04 0.05 0.05 0.05 0.05 0.06 0.06 0.05 0.04 0.04 0.02 0.01 0.02 0.01 0.01 0.01 0.00 0.00 0.01 0.01 0.00
0.13 0.12 0.13 0.11 0.11 0.11 0.10 0.07 0.06 0.05 0.06 0.06 0.07 0.08 0.06 0.04 0.05 0.04 0.04 0.04 0.02 0.02 0.02 0.03 0.03 0.04 0.05 0.06 0.06 0.05 0.06 0.05 0.04 0.03 0.04 0.02 0.01 0.00 0.00 0.00 0.01 0.01 0.00
0.12 0.11 0.11 0.10 0.10 0.09 0.08 0.06 0.05 0.04 0.04 0.06 0.08 0.10 0.11 0.11 0.09 0.07 0.06 0.06 0.05 0.05 0.04 0.03 0.03 0.03 0.04 0.05 0.05 0.04 0.05 0.04 0.02 0.02 0.04 0.03 0.01 0.01 0.00 0.00 0.01 0.01 0.00
0.12 0.11 0.11 0.12 0.13 0.12 0.08 0.05 0.04 0.03 0.04 0.06 0.08 0.09 0.10 0.11 0.09 0.07 0.07 0.08 0.08 0.07 0.05 0.05 0.03 0.02 0.02 0.01 0.02 0.03 0.03 0.03 0.02 0.01 0.02 0.04 0.02 0.02 0.01 0.01 0.01 0.02 0.02
0.13 0.15 0.16 0.15 0.14 0.13 0.10 0.07 0.05 0.04 0.05 0.07 0.08 0.08 0.08 0.08 0.08 0.07 0.07 0.08 0.08 0.07 0.07 0.07 0.06 0.04 0.03 0.02 0.02 0.03 0.04 0.05 0.04 0.03 0.03 0.05 0.04 0.04 0.03 0.01 0.01 0.01 0.02
MSLP
1014.91 1015.21 1015.40 1015.51 1015.57 1015.62 1015.68 1015.76 1015.85 1015.95 1016.04 1016.12 1016.21 1016.32 1016.47 1016.69 1016.98 1017.34 1017.75 1018.17 1018.58 1018.93 1019.22 1019.43 1019.59 1019.71 1019.82 1019.96 1020.12 1020.33 1020.58 1020.85 1021.12 1021.40 1021.65 1021.89 1022.10 1022.31 1022.50 1022.67 1022.84 1022.98 1023.11
1014.71 1015.02 1015.25 1015.40 1015.52 1015.61 1015.72 1015.84 1015.98 1016.12 1016.27 1016.41 1016.55 1016.69 1016.84 1017.03 1017.27 1017.55 1017.88 1018.22 1018.57 1018.89 1019.18 1019.42 1019.63 1019.79 1019.95 1020.10 1020.26 1020.45 1020.65 1020.88 1021.12 1021.37 1021.62 1021.88 1022.11 1022.34 1022.56 1022.74 1022.91 1023.04 1023.16
1014.49 1014.83 1015.09 1015.32 1015.49 1015.66 1015.83 1016.01 1016.20 1016.40 1016.60 1016.79 1016.96 1017.12 1017.27 1017.42 1017.59 1017.78 1018.01 1018.26 1018.54 1018.82 1019.10 1019.37 1019.61 1019.82 1020.01 1020.18 1020.34 1020.51 1020.68 1020.86 1021.07 1021.29 1021.54 1021.79 1022.05 1022.30 1022.53 1022.73 1022.91 1023.04 1023.16
1014.30 1014.65 1014.97 1015.25 1015.50 1015.74 1015.98 1016.22 1016.46 1016.70 1016.94 1017.16 1017.36 1017.52 1017.66 1017.77 1017.88 1018.00 1018.13 1018.30 1018.51 1018.74 1019.00 1019.27 1019.53 1019.78 1019.99 1020.18 1020.35 1020.49 1020.64 1020.78 1020.96 1021.15 1021.38 1021.63 1021.89 1022.16 1022.41 1022.63 1022.81 1022.96 1023.09
1014.16 1014.51 1014.86 1015.21 1015.53 1015.84 1016.13 1016.41 1016.68 1016.96 1017.22 1017.46 1017.66 1017.84 1017.97 1018.06 1018.12 1018.18 1018.25 1018.34 1018.48 1018.66 1018.89 1019.14 1019.41 1019.66 1019.90 1020.10 1020.27 1020.41 1020.53 1020.65 1020.79 1020.96 1021.16 1021.40 1021.66 1021.93 1022.18 1022.41 1022.61 1022.78 1022.91
1014.06 1014.41 1014.80 1015.20 1015.57 1015.93 1016.26 1016.56 1016.84 1017.12 1017.38 1017.62 1017.84 1018.02 1018.15 1018.24 1018.29 1018.32 1018.35 1018.39 1018.47 1018.60 1018.78 1019.01 1019.25 1019.51 1019.74 1019.95 1020.11 1020.25 1020.36 1020.47 1020.59 1020.73 1020.92 1021.14 1021.38 1021.64 1021.89 1022.11 1022.31 1022.48 1022.63
1014.02 1014.38 1014.78 1015.21 1015.62 1016.01 1016.35 1016.65 1016.92 1017.18 1017.42 1017.66 1017.88 1018.07 1018.23 1018.34 1018.41 1018.43 1018.45 1018.46 1018.49 1018.57 1018.70 1018.88 1019.09 1019.32 1019.54 1019.74 1019.91 1020.05 1020.16 1020.27 1020.39 1020.52 1020.69 1020.88 1021.10 1021.33 1021.55 1021.75 1021.93 1022.10 1022.25
1014.03 1014.39 1014.81 1015.26 1015.69 1016.08 1016.42 1016.71 1016.95 1017.17 1017.39 1017.61 1017.83 1018.03 1018.22 1018.37 1018.47 1018.52 1018.54 1018.54 1018.54 1018.58 1018.65 1018.77 1018.93 1019.12 1019.32 1019.51 1019.68 1019.83 1019.97 1020.09 1020.21 1020.35 1020.51 1020.67 1020.86 1021.04 1021.22 1021.39 1021.54 1021.67 1021.81
1014.08 1014.44 1014.88 1015.34 1015.78 1016.17 1016.49 1016.75 1016.96 1017.15 1017.33 1017.53 1017.74 1017.97 1018.18 1018.37 1018.51 1018.60 1018.63 1018.63 1018.61 1018.59 1018.61 1018.66 1018.77 1018.91 1019.08 1019.26 1019.44 1019.61 1019.78 1019.93 1020.08 1020.23 1020.39 1020.54 1020.68 1020.83 1020.95 1021.06 1021.16 1021.26 1021.37
1014.13 1014.51 1014.96 1015.43 1015.87 1016.26 1016.57 1016.81 1016.99 1017.14 1017.29 1017.47 1017.68 1017.91 1018.15 1018.37 1018.55 1018.66 1018.71 1018.70 1018.66 1018.60 1018.56 1018.55 1018.59 1018.68 1018.82 1018.99 1019.19 1019.39 1019.59 1019.79 1019.98 1020.16 1020.32 1020.46 1020.58 1020.68 1020.76 1020.81 1020.86 1020.91 1020.97
1014.18 1014.57 1015.03 1015.51 1015.97 1016.35 1016.66 1016.88 1017.04 1017.17 1017.30 1017.46 1017.66 1017.89 1018.14 1018.37 1018.57 1018.70 1018.75 1018.73 1018.66 1018.57 1018.47 1018.41 1018.40 1018.44 1018.55 1018.71 1018.91 1019.15 1019.39 1019.63 1019.86 1020.07 1020.25 1020.40 1020.51 1020.58 1020.62 1020.63 1020.63 1020.63 1020.64
1014.20 1014.61 1015.08 1015.57 1016.03 1016.42 1016.73 1016.96 1017.11 1017.23 1017.34 1017.48 1017.66 1017.88 1018.12 1018.35 1018.54 1018.67 1018.72 1018.69 1018.60 1018.48 1018.34 1018.23 1018.17 1018.18 1018.26 1018.41 1018.61 1018.86 1019.14 1019.42 1019.69 1019.93 1020.13 1020.29 1020.41 1020.47 1020.49 1020.48 1020.46 1020.42 1020.39
1014.18 1014.61 1015.09 1015.58 1016.04 1016.44 1016.76 1016.99 1017.16 1017.27 1017.38 1017.50 1017.66 1017.86 1018.07 1018.28 1018.46 1018.57 1018.61 1018.57 1018.47 1018.32 1018.16 1018.03 1017.93 1017.91 1017.97 1018.09 1018.29 1018.54 1018.82 1019.11 1019.40 1019.67 1019.90 1020.08 1020.21 1020.29 1020.32 1020.32 1020.28 1020.24 1020.19
1014.15 1014.57 1015.03 1015.52 1015.97 1016.38 1016.71 1016.95 1017.12 1017.25 1017.36 1017.47 1017.61 1017.77 1017.96 1018.14 1018.28 1018.38 1018.41 1018.37 1018.27 1018.12 1017.96 1017.81 1017.71 1017.66 1017.68 1017.78 1017.95 1018.17 1018.43 1018.71 1018.99 1019.27 1019.51 1019.71 1019.86 1019.97 1020.03 1020.05 1020.05 1020.02 1019.98
1014.09 1014.49 1014.93 1015.38 1015.83 1016.22 1016.55 1016.81 1016.99 1017.12 1017.23 1017.34 1017.46 1017.59 1017.74 1017.89 1018.02 1018.11 1018.14 1018.11 1018.03 1017.90 1017.76 1017.63 1017.52 1017.46 1017.45 1017.51 1017.62 1017.79 1018.00 1018.23 1018.48 1018.72 1018.95 1019.16 1019.33 1019.47 1019.58 1019.65 1019.69 1019.70 1019.69
1014.02 1014.38 1014.77 1015.18 1015.59 1015.97 1016.28 1016.54 1016.73 1016.88 1016.98 1017.08 1017.19 1017.30 1017.43 1017.56 1017.68 1017.77 1017.82 1017.82 1017.78 1017.70 1017.60 1017.49 1017.40 1017.34 1017.30 1017.31 1017.36 1017.45 1017.57 1017.72 1017.89 1018.08 1018.27 1018.46 1018.65 1018.81 1018.95 1019.07 1019.16 1019.23 1019.27
1013.93 1014.23 1014.57 1014.93 1015.29 1015.62 1015.92 1016.16 1016.35 1016.50 1016.61 1016.71 1016.81 1016.92 1017.03 1017.16 1017.28 1017.40 1017.48 1017.53 1017.54 1017.53 1017.49 1017.43 1017.37 1017.30 1017.25 1017.20 1017.18 1017.17 1017.19 1017.24 1017.32 1017.42 1017.55 1017.70 1017.85 1018.02 1018.18 1018.34 1018.47 1018.59 1018.67
1013.81 1014.05 1014.33 1014.62 1014.93 1015.22 1015.48 1015.71 1015.89 1016.03 1016.14 1016.25 1016.35 1016.46 1016.59 1016.73 1016.87 1017.02 1017.15 1017.26 1017.35 1017.41 1017.43 1017.43 1017.41 1017.35 1017.28 1017.20 1017.10 1017.01 1016.93 1016.86 1016.84 1016.84 1016.88 1016.95 1017.06 1017.19 1017.34 1017.50 1017.65 1017.79 1017.91
1013.61 1013.81 1014.04 1014.28 1014.54 1014.78 1015.01 1015.21 1015.37 1015.51 1015.63 1015.74 1015.86 1015.99 1016.14 1016.30 1016.48 1016.66 1016.85 1017.03 1017.18 1017.31 1017.41 1017.47 1017.48 1017.45 1017.38 1017.26 1017.12 1016.96 1016.79 1016.63 1016.50 1016.40 1016.34 1016.33 1016.35 1016.42 1016.52 1016.64 1016.77 1016.90 1017.03
1013.34 1013.51 1013.70 1013.91 1014.13 1014.34 1014.53 1014.71 1014.86 1015.00 1015.12 1015.25 1015.39 1015.54 1015.72 1015.91 1016.13 1016.36 1016.59 1016.82 1017.04 1017.23 1017.38 1017.49 1017.54 1017.54 1017.48 1017.36 1017.20 1017.00 1016.77 1016.54 1016.33 1016.14 1015.99 1015.88 1015.81 1015.78 1015.79 1015.83 1015.90 1015.98 1016.08
1012.99 1013.16 1013.34 1013.54 1013.73 1013.92 1014.09 1014.26 1014.41 1014.54 1014.68 1014.83 1014.99 1015.17 1015.38 1015.60 1015.85 1016.12 1016.39 1016.65 1016.90 1017.13 1017.32 1017.47 1017.56 1017.59 1017.55 1017.45 1017.29 1017.08 1016.84 1016.58 1016.31 1016.06 1015.83 1015.62 1015.45 1015.32 1015.22 1015.15 1015.12 1015.12 1015.15
1012.61 1012.80 1012.99 1013.19 1013.39 1013.57 1013.74 1013.90 1014.05 1014.20 1014.36 1014.53 1014.71 1014.92 1015.15 1015.40 1015.67 1015.95 1016.23 1016.51 1016.77 1017.01 1017.21 1017.38 1017.49 1017.54 1017.53 1017.47 1017.34 1017.15 1016.92 1016.67 1016.39 1016.10 1015.81 1015.53 1015.27 1015.02 1014.80 1014.62 1014.47 1014.35 1014.29
1012.26 1012.48 1012.71 1012.93 1013.15 1013.34 1013.53 1013.69 1013.85 1014.02 1014.19 1014.38 1014.59 1014.82 1015.07 1015.33 1015.61 1015.89 1016.16 1016.42 1016.66 1016.88 1017.07 1017.22 1017.34 1017.40 1017.42 1017.38 1017.29 1017.15 1016.96 1016.73 1016.47 1016.17 1015.86 1015.53 1015.20 1014.86 1014.53 1014.23 1013.96 1013.73 1013.57
1012.03 1012.30 1012.58 1012.84 1013.08 1013.29 1013.49 1013.68 1013.85 1014.03 1014.22 1014.42 1014.65 1014.89 1015.14 1015.41 1015.67 1015.93 1016.17 1016.39 1016.59 1016.77 1016.92 1017.04 1017.13 1017.18 1017.20 1017.18 1017.12 1017.03 1016.88 1016.69 1016.46 1016.19 1015.88 1015.53 1015.15 1014.76 1014.35 1013.95 1013.58 1013.26 1012.99
1012.02 1012.34 1012.66 1012.95 1013.22 1013.47 1013.69 1013.89 1014.07 1014.26 1014.45 1014.66 1014.89 1015.12 1015.37 1015.62 1015.86 1016.08 1016.28 1016.45 1016.59 1016.70 1016.79 1016.85 1016.90 1016.91 1016.91 1016.89 1016.84 1016.77 1016.65 1016.50 1016.30 1016.07 1015.77 1015.43 1015.05 1014.63 1014.19 1013.74 1013.30 1012.91 1012.56
1012.28 1012.64 1012.99 1013.32 1013.62 1013.88 1014.11 1014.31 1014.50 1014.68 1014.87 1015.07 1015.28 1015.50 1015.72 1015.94 1016.15 1016.33 1016.47 1016.58 1016.66 1016.70 1016.72 1016.71 1016.69 1016.65 1016.60 1016.54 1016.47 1016.39 1016.29 1016.16 1015.99 1015.78 1015.52 1015.21 1014.85 1014.44 1014.00 1013.54 1013.09 1012.65 1012.26
Thickness
5754 5752 5750 5748 5747 5746 5744 5744 5744 5744 5743 5743 5743 5742 5741 5740 5738 5734 5729 5727 5725 5723 5721 5720 5719 5718 5717 5716 5715 5714 5714 5713 5712 5711 5710 5710 5709 5709 5708 5707 5707 5706 5705
5753 5751 5748 5747 5746 5745 5744 5743 5743 5742 5742 5742 5741 5741 5740 5738 5736 5733 5729 5726 5725 5723 5721 5720 5719 5718 5717 5716 5714 5714 5713 5712 5711 5710 5709 5709 5708 5708 5707 5706 5706 5705 5704
5752 5750 5748 5746 5746 5745 5744 5743 5742 5742 5741 5741 5740 5739 5738 5736 5735 5732 5730 5727 5725 5723 5722 5720 5719 5718 5717 5716 5715 5714 5713 5712 5711 5710 5709 5708 5707 5707 5706 5706 5705 5704 5703
5751 5749 5748 5746 5745 5744 5743 5742 5742 5741 5740 5739 5738 5738 5737 5735 5734 5732 5731 5729 5727 5725 5722 5721 5720 5719 5718 5716 5715 5714 5713 5712 5710 5709 5708 5707 5707 5706 5705 5705 5705 5704 5703
5750 5748 5747 5746 5745 5744 5743 5743 5741 5740 5737 5737 5737 5737 5737 5735 5734 5734 5732 5731 5729 5728 5725 5722 5721 5719 5718 5717 5715 5714 5713 5712 5711 5709 5708 5707 5706 5706 5705 5705 5704 5703 5703
5749 5748 5746 5745 5745 5743 5742 5741 5739 5739 5738 5737 5738 5737 5737 5736 5735 5735 5734 5733 5732 5730 5727 5725 5722 5720 5719 5718 5716 5715 5714 5712 5711 5710 5709 5708 5707 5706 5705 5705 5704 5703 5702
5747 5747 5746 5744 5743 5742 5741 5740 5739 5737 5736 5738 5734 5732 5734 5737 5736 5736 5735 5734 5733 5732 5730 5728 5725 5723 5721 5719 5717 5716 5715 5713 5712 5711 5710 5708 5707 5707 5706 5705 5704 5703 5702
5746 5746 5745 5743 5742 5741 5740 5739 5738 5735 5736 5738 5732 5727 5724 5726 5732 5737 5736 5734 5734 5733 5732 5730 5728 5726 5724 5722 5719 5717 5716 5714 5713 5712 5710 5709 5708 5707 5706 5706 5704 5703 5702
5745 5745 5744 5743 5742 5740 5738 5738 5737 5734 5733 5736 5737 5730 5722 5719 5725 5732 5735 5735 5734 5734 5733 5732 5730 5728 5726 5724 5722 5719 5717 5715 5714 5713 5711 5710 5709 5708 5707 5706 5705 5704 5703
5744 5743 5742 5742 5741 5740 5738 5737 5737 5737 5734 5732 5735 5736 5734 5731 5724 5722 5729 5733 5735 5733 5733 5733 5732 5729 5727 5725 5723 5721 5719 5717 5715 5713 5712 5711 5709 5708 5707 5706 5705 5704 5703
5742 5742 5741 5741 5740 5739 5739 5738 5738 5737 5736 5734 5733 5734 5734 5733 5733 5725 5721 5726 5730 5733 5733 5733 5732 5730 5729 5726 5724 5722 5720 5717 5715 5714 5712 5711 5709 5708 5707 5706 5705 5704 5703
5740 5741 5740 5739 5739 5739 5738 5738 5737 5736 5735 5735 5735 5735 5733 5731 5730 5729 5725 5725 5726 5731 5734 5735 5733 5731 5730 5728 5725 5723 5720 5718 5716 5714 5712 5710 5709 5708 5707 5706 5705 5703 5702
5738 5739 5740 5738 5738 5738 5737 5737 5736 5736 5735 5734 5733 5734 5735 5735 5736 5733 5729 5726 5727 5730 5733 5734 5735 5733 5731 5729 5726 5723 5720 5718 5715 5713 5711 5710 5708 5707 5706 5705 5704 5703 5701
5740 5740 5739 5737 5737 5737 5737 5736 5736 5735 5734 5733 5733 5733 5733 5735 5736 5735 5731 5727 5722 5725 5728 5731 5735 5734 5732 5729 5726 5722 5719 5717 5715 5713 5711 5709 5707 5706 5705 5704 5702 5701 5700
5741 5739 5738 5736 5736 5736 5736 5734 5733 5733 5733 5732 5731 5731 5730 5732 5734 5734 5734 5731 5723 5716 5719 5728 5731 5733 5732 5728 5725 5721 5719 5716 5714 5712 5710 5708 5707 5705 5704 5702 5701 5700 5699
5740 5738 5737 5735 5734 5734 5734 5733 5732 5732 5731 5730 5729 5728 5729 5730 5731 5732 5731 5730 5728 5722 5717 5725 5727 5730 5730 5728 5723 5720 5718 5716 5713 5711 5710 5708 5706 5704 5703 5701 5700 5699 5697
5738 5736 5735 5734 5733 5733 5732 5731 5730 5730 5728 5727 5727 5727 5726 5726 5725 5726 5727 5726 5725 5722 5716 5720 5725 5727 5725 5723 5720 5717 5716 5714 5712 5710 5709 5707 5705 5703 5701 5699 5698 5697 5695
5736 5735 5734 5733 5732 5732 5732 5730 5728 5728 5727 5725 5725 5724 5723 5724 5722 5721 5721 5721 5720 5720 5715 5712 5716 5718 5718 5718 5716 5714 5713 5712 5711 5710 5708 5706 5704 5702 5700 5698 5696 5694 5693
5734 5734 5733 5732 5731 5731 5730 5729 5727 5726 5725 5724 5723 5722 5721 5719 5717 5717 5716 5715 5715 5716 5714 5710 5709 5712 5712 5713 5711 5709 5709 5708 5708 5708 5707 5704 5702 5700 5698 5696 5694 5692 5690
5732 5732 5731 5730 5730 5729 5728 5727 5725 5724 5722 5722 5721 5719 5718 5716 5714 5712 5711 5710 5709 5707 5707 5704 5703 5704 5705 5707 5705 5701 5699 5700 5701 5702 5702 5701 5699 5697 5695 5693 5691 5689 5688
5731 5730 5729 5727 5726 5725 5724 5723 5722 5721 5719 5717 5717 5716 5715 5713 5712 5709 5707 5705 5702 5700 5699 5697 5696 5696 5696 5696 5695 5695 5692 5693 5695 5695 5694 5695 5694 5692 5690 5688 5687 5686 5685
5727 5726 5724 5722 5721 5720 5720 5719 5718 5717 5715 5713 5711 5710 5710 5708 5707 5704 5702 5700 5697 5694 5692 5690 5689 5687 5688 5689 5689 5688 5685 5682 5682 5688 5686 5686 5687 5685 5686 5685 5684 5683 5682
5723 5721 5719 5718 5715 5714 5713 5713 5712 5711 5710 5708 5706 5704 5704 5705 5702 5699 5696 5694 5691 5689 5686 5683 5681 5680 5680 5680 5679 5677 5676 5673 5673 5677 5674 5674 5677 5677 5679 5679 5679 5678 5676
5717 5716 5714 5713 5710 5707 5706 5706 5705 5705 5703 5702 5700 5698 5695 5694 5693 5691 5689 5687 5685 5683 5680 5677 5675 5675 5673 5672 5670 5668 5666 5666 5667 5668 5666 5662 5666 5666 5670 5670 5670 5669 5668
5712 5711 5709 5707 5703 5700 5698 5697 5696 5696 5694 5693 5692 5690 5688 5685 5682 5680 5679 5678 5677 5675 5674 5672 5670 5668 5666 5663 5661 5657 5655 5653 5653 5656 5657 5653 5655 5655 5657 5658 5659 5659 5658
5706 5704 5701 5699 5695 5691 5689 5687 5685 5686 5684 5682 5681 5679 5676 5673 5671 5669 5667 5666 5664 5664 5662 5662 5660 5658 5656 5654 5651 5648 5645 5641 5641 5642 5646 5642 5642 5641 5641 5646 5647 5647 5646